Wetbulb
72.85 73.39 74.83 72.20 63.73 62.99 57.96 59.26 62.00 59.78 59.96 63.43 64.30 62.76 64.52 66.00 62.96 59.36 70.15 71.91 74.15 74.86 75.69 76.32 77.18 77.11 77.13 76.74 76.99 77.32 77.43 77.27 77.40 77.26 77.01 76.90 77.01 76.93 77.54 76.99 77.06 77.84 76.84 77.00 76.47 76.54 76.33 76.40 76.50
72.85 72.41 71.81 70.57 61.04 55.92 57.78 62.59 59.09 61.62 63.08 64.65 65.07 65.68 65.12 63.75 67.09 67.35 69.08 72.63 74.69 75.13 75.91 76.42 77.07 76.37 76.85 77.11 77.01 76.96 77.26 77.24 77.38 77.30 76.74 76.92 77.14 76.92 77.39 76.60 77.62 77.23 77.40 76.66 76.90 76.70 76.60 76.35 76.36
72.69 73.14 69.20 65.22 58.26 55.72 57.92 63.15 61.31 63.36 64.20 65.57 65.15 68.53 67.17 64.18 66.89 68.08 71.62 73.36 74.82 75.37 76.63 76.81 76.07 75.66 75.69 76.20 76.85 76.75 76.90 76.99 77.31 77.32 76.57 76.67 77.11 77.23 77.17 77.15 77.10 76.98 77.09 76.74 76.64 76.48 76.57 76.58 76.33
72.22 72.45 69.54 60.65 56.93 59.60 61.44 64.66 64.18 63.21 65.06 67.22 67.25 64.51 67.16 69.53 68.47 70.93 72.85 73.97 74.63 75.22 76.35 76.26 75.99 76.35 75.73 75.20 75.26 75.48 76.18 76.56 76.95 77.14 76.75 77.13 76.89 76.95 77.40 77.00 76.73 76.34 76.32 76.07 76.37 76.26 76.40 76.34 76.09
74.82 67.75 59.51 58.49 58.62 61.98 64.61 65.69 65.02 63.04 64.75 66.12 66.91 64.08 64.21 68.79 72.05 72.38 73.30 73.90 74.09 75.15 75.95 76.88 76.82 76.45 76.38 75.96 76.52 76.08 75.52 76.60 76.61 77.21 76.93 76.80 76.79 76.96 77.23 77.04 77.04 76.77 77.08 76.52 76.80 76.93 76.84 76.50 75.67
65.11 66.87 57.27 54.00 57.59 62.55 65.28 66.37 65.38 64.81 66.02 65.97 64.96 64.47 65.71 71.19 71.14 72.45 73.57 73.87 74.75 74.69 76.06 76.42 76.39 76.84 76.67 76.33 76.37 76.15 75.87 76.19 76.71 76.99 76.31 76.49 77.28 77.32 77.37 77.27 77.05 76.94 77.10 76.82 76.51 76.34 76.12 75.70 75.77
65.41 61.68 58.79 56.68 57.91 60.65 63.80 66.55 64.10 65.48 65.48 65.30 67.01 62.78 66.96 69.28 72.38 73.23 73.53 74.20 74.43 74.43 75.49 75.87 75.95 76.98 76.36 76.54 76.41 76.19 76.00 76.61 76.42 76.66 75.88 76.15 76.85 76.93 76.99 77.02 76.97 76.74 76.46 76.55 76.32 76.13 75.79 76.16 75.80
69.92 66.51 59.15 58.95 57.00 58.80 63.86 64.99 66.30 66.24 64.72 68.30 68.38 62.95 63.87 69.18 72.79 73.43 73.84 73.91 73.60 74.03 75.86 75.81 76.09 76.80 76.36 76.72 76.00 76.23 76.00 76.25 76.49 76.09 75.96 76.18 76.54 77.07 76.94 77.63 77.48 76.66 76.49 76.01 76.01 75.99 75.71 76.31 75.63
69.54 62.44 58.83 58.23 58.65 60.26 64.60 63.19 66.63 68.16 66.43 66.60 67.44 67.36 69.65 71.59 72.55 72.08 72.15 72.22 72.41 72.85 73.96 75.27 74.66 75.74 76.05 76.19 76.22 76.18 76.22 76.30 76.54 76.44 76.14 76.48 76.58 76.92 77.20 77.63 76.85 76.32 75.78 75.47 75.79 76.19 76.21 76.20 76.10
66.10 63.01 59.63 63.32 63.17 61.39 63.25 63.52 64.46 65.00 65.52 65.61 66.27 69.16 70.49 70.94 70.75 69.59 69.14 69.52 70.74 72.18 73.49 74.93 74.56 75.25 75.70 74.78 76.93 77.21 76.49 76.28 76.89 77.18 77.05 76.76 77.06 77.78 77.09 77.06 76.60 76.18 75.81 76.21 75.71 75.74 75.21 76.78 75.07
64.64 61.46 63.68 64.08 64.69 64.18 62.45 63.92 65.89 65.00 63.56 65.73 65.32 67.18 69.10 69.30 69.19 68.04 68.88 70.44 71.41 73.36 73.61 74.33 74.94 75.38 75.48 76.40 75.84 75.62 75.66 75.51 76.29 77.30 77.09 76.98 76.70 76.72 76.45 75.76 75.58 75.29 75.11 76.37 76.86 76.92 76.45 75.75 75.57
62.19 64.64 64.98 63.77 64.90 62.45 61.74 63.77 64.14 64.82 65.57 68.19 68.36 68.94 68.94 68.25 67.61 67.50 69.44 70.83 71.88 72.81 73.47 74.36 74.91 75.79 76.11 75.16 74.75 74.38 73.68 74.24 74.38 75.89 76.96 76.51 75.55 75.35 75.07 74.25 75.10 76.14 76.21 77.16 76.50 75.35 76.04 76.57 76.44
63.50 63.82 65.98 64.98 63.87 64.37 64.11 64.03 63.07 64.62 67.43 68.58 68.55 68.35 67.84 67.84 67.32 68.84 70.22 71.50 72.36 72.41 73.41 74.17 75.07 75.96 76.17 76.29 74.85 74.13 73.66 73.79 74.69 75.66 76.22 75.59 74.73 75.09 75.36 75.93 75.42 76.26 77.84 75.87 76.03 75.36 75.89 75.34 75.39
62.96 64.50 65.51 64.14 63.12 63.48 61.83 61.85 63.53 65.40 67.71 67.31 67.24 66.82 67.56 67.30 67.58 68.79 69.92 70.68 71.68 72.65 72.93 74.37 74.77 75.47 75.82 76.34 76.30 75.29 74.58 75.24 74.90 75.03 75.62 76.75 75.40 75.81 75.71 75.41 75.44 76.37 77.33 76.36 76.07 76.06 75.06 74.73 75.10
63.77 61.45 64.45 63.17 62.75 61.65 62.47 58.50 60.62 65.87 67.02 65.37 65.54 66.91 67.61 68.08 68.73 68.58 70.04 70.54 71.89 72.99 73.67 74.21 74.52 75.19 75.77 76.20 76.20 74.80 74.62 74.88 74.73 75.14 76.73 76.96 76.93 77.08 76.83 75.96 76.14 76.16 77.17 78.70 76.56 75.88 75.48 73.46 73.81
60.93 61.40 58.45 62.37 61.92 62.76 61.16 56.57 62.30 65.89 64.60 64.08 65.56 66.46 67.42 68.26 68.78 69.71 70.29 71.27 72.59 73.65 73.86 74.48 73.45 74.72 75.69 76.12 75.93 74.88 75.51 74.94 74.95 75.20 75.73 76.44 77.04 77.29 77.54 76.03 76.19 77.44 78.44 76.79 75.52 75.37 74.28 74.09 73.92
59.58 55.46 56.97 59.14 63.20 61.60 60.08 57.55 62.01 64.55 63.05 63.90 65.27 66.30 67.78 68.79 69.82 70.14 70.86 71.66 72.80 74.19 74.69 74.63 74.82 74.66 75.69 76.56 77.24 76.33 76.24 76.75 75.36 75.65 75.65 76.96 76.89 77.28 77.08 75.95 76.29 78.22 77.80 76.26 76.66 75.78 76.64 74.33 74.50
54.14 54.55 59.50 57.42 60.71 61.68 61.38 59.07 61.33 63.54 63.96 64.37 65.45 66.88 67.82 68.61 69.62 70.92 71.38 72.49 73.07 74.39 75.25 75.01 75.33 75.91 76.30 76.23 77.46 76.23 75.69 75.82 75.77 75.31 75.72 77.25 77.19 77.28 77.18 76.39 77.20 77.24 76.36 75.99 75.94 77.04 76.07 75.74 75.13
55.84 55.14 58.75 60.61 61.72 60.40 59.83 58.28 61.01 62.83 62.64 63.91 64.30 66.52 67.57 68.42 71.03 71.82 72.02 72.61 73.45 74.24 74.85 75.18 75.27 76.23 75.96 75.65 73.87 74.06 73.53 74.86 75.36 76.18 77.28 77.69 77.14 77.60 78.46 76.11 76.19 76.66 76.44 76.95 78.24 77.00 75.91 73.88 75.99
56.74 55.62 58.95 61.29 63.22 60.84 59.77 59.92 62.93 62.47 61.56 65.47 65.21 65.69 67.29 68.30 68.72 71.37 71.95 72.76 73.34 74.11 74.64 75.14 75.61 76.35 77.22 76.12 76.90 75.76 74.95 75.09 75.55 76.41 77.34 77.54 77.26 77.73 77.21 78.17 76.23 77.08 75.81 77.76 77.66 77.59 74.73 73.98 76.26
58.89 57.20 58.98 58.57 61.44 62.34 60.33 57.99 60.73 61.75 63.09 65.63 66.72 67.81 67.44 67.17 69.06 70.71 71.63 72.36 73.23 73.95 74.74 75.30 76.01 76.45 77.02 76.71 77.75 75.85 77.78 75.85 74.85 75.30 75.66 76.74 77.49 77.30 77.24 77.31 77.38 76.60 76.91 75.55 77.90 76.99 77.08 72.71 75.39
53.40 56.94 59.78 60.15 58.60 53.93 61.86 48.50 59.05 60.27 61.88 64.22 65.49 66.82 67.61 68.19 69.38 70.66 71.57 72.19 72.83 73.92 75.25 75.95 76.21 76.65 76.32 77.58 76.42 76.58 75.52 74.30 74.59 74.58 75.70 75.98 77.15 77.09 76.79 77.63 76.77 76.74 77.23 77.43 77.20 76.97 77.12 77.85 73.15
53.36 57.53 59.31 59.89 58.43 57.51 56.94 50.80 54.82 61.16 58.88 60.40 63.89 65.81 66.83 68.03 68.47 69.61 71.13 72.53 73.30 74.17 74.80 75.54 76.30 76.96 76.90 76.89 76.98 74.91 74.49 74.26 75.05 75.29 76.82 77.14 77.84 77.60 76.75 77.85 76.87 76.83 75.44 78.20 78.14 78.33 77.80 76.96 75.30
55.10 56.87 57.58 57.52 57.13 50.17 55.54 55.52 54.68 58.48 60.59 62.99 64.09 65.03 66.69 67.65 68.13 69.88 71.24 72.11 73.28 74.20 74.70 74.81 75.68 76.49 76.82 77.03 76.52 75.96 75.48 74.79 75.64 76.14 75.77 75.19 75.55 75.91 77.09 77.56 77.92 78.33 77.82 77.76 77.36 78.59 77.68 77.92 77.68
56.24 55.61 49.19 47.91 48.82 49.44 55.15 53.38 56.75 61.58 62.86 63.79 64.18 64.89 67.60 67.68 67.67 68.86 70.28 70.75 73.32 73.45 74.18 74.47 75.52 75.71 76.45 76.27 76.35 76.23 75.64 75.73 75.01 75.64 74.23 74.57 75.84 75.21 77.00 77.54 78.11 77.02 77.96 78.19 78.84 78.15 78.41 77.82 77.37
53.57 54.50 48.73 43.61 47.18 50.10 55.83 51.16 56.03 62.18 64.88 65.86 66.35 65.59 68.21 68.48 68.25 68.95 70.75 71.75 71.15 73.29 74.45 74.54 75.33 75.48 76.03 75.88 76.27 77.01 77.10 75.15 74.86 75.85 77.37 75.27 75.82 75.03 77.00 76.89 76.87 77.94 78.04 77.85 78.31 76.94 76.51 77.79 77.23
52.78 51.73 56.08 51.25 53.19 50.96 53.72 56.41 59.44 62.57 63.46 64.57 65.93 66.30 65.28 67.75 68.20 69.16 70.72 72.01 73.29 73.47 74.50 74.68 75.21 75.97 76.01 75.81 76.31 76.59 76.82 76.63 77.38 76.63 76.39 76.08 77.47 76.01 76.64 76.68 76.64 77.12 77.20 77.99 78.27 76.19 76.80 77.72 77.62
53.01 56.93 51.18 52.30 46.89 45.54 51.54 52.99 55.84 59.44 62.01 64.02 64.52 65.55 64.78 66.91 67.95 69.84 70.89 72.35 73.44 70.84 74.58 74.18 75.88 75.89 75.84 75.89 76.25 75.63 76.28 76.87 77.08 77.91 77.30 77.08 77.63 77.92 77.53 76.92 76.61 77.29 77.25 77.65 77.97 76.92 77.58 77.48 76.66
50.51 50.26 52.31 53.02 51.53 48.20 47.77 51.81 62.88 62.46 63.50 64.41 65.63 65.21 65.67 66.97 67.85 69.70 71.19 72.86 73.71 73.68 72.77 74.37 74.89 75.46 75.09 75.33 75.84 75.44 75.66 75.98 76.90 76.59 77.30 77.73 78.00 78.06 77.66 77.99 77.23 77.08 76.81 77.41 77.33 77.21 76.90 77.05 76.75
52.71 51.13 51.82 48.59 48.97 51.70 52.30 54.55 63.65 64.37 64.97 65.39 66.46 66.57 67.63 68.60 68.79 69.85 71.39 72.15 72.77 72.68 72.11 71.73 73.28 74.59 75.38 75.88 76.21 76.38 76.10 76.46 75.82 76.16 76.93 77.52 77.37 77.86 78.10 77.93 77.89 76.86 76.75 77.51 76.63 76.07 75.92 76.33 75.82
MSLP
1011.82 1010.91 1010.65 1010.04 1009.59 1008.71 1007.98 1007.85 1007.61 1007.47 1007.84 1008.60 1009.04 1009.07 1010.05 1010.92 1010.88 1012.22 1013.90 1014.46 1015.21 1015.57 1016.64 1017.09 1017.64 1017.70 1017.78 1017.90 1018.03 1018.10 1018.18 1018.26 1018.33 1018.39 1018.49 1018.46 1018.64 1018.64 1018.71 1018.79 1018.85 1018.89 1019.01 1019.19 1019.25 1019.18 1019.47 1019.28 1019.39
1010.72 1010.91 1010.89 1009.81 1009.24 1008.31 1008.04 1007.51 1007.60 1007.53 1008.26 1008.85 1009.59 1009.94 1010.12 1011.70 1012.70 1013.26 1014.13 1014.82 1015.15 1015.49 1015.95 1016.93 1018.02 1018.11 1018.12 1018.16 1018.25 1018.32 1018.45 1018.50 1018.61 1018.66 1018.77 1018.90 1018.96 1018.92 1018.97 1019.10 1019.21 1019.32 1019.46 1019.51 1019.57 1019.66 1019.58 1019.68 1019.91
1010.87 1011.00 1010.19 1009.78 1009.57 1008.83 1007.99 1007.43 1007.68 1008.16 1008.99 1009.30 1010.04 1010.33 1011.38 1012.92 1013.38 1013.49 1014.40 1014.94 1015.15 1015.53 1016.10 1017.71 1018.24 1018.37 1018.39 1018.48 1018.57 1018.64 1018.76 1018.82 1018.84 1018.95 1019.02 1018.96 1019.18 1019.27 1019.37 1019.45 1019.50 1019.65 1019.76 1019.83 1019.87 1019.92 1020.00 1020.13 1020.25
1010.56 1010.21 1010.11 1010.09 1009.47 1009.65 1008.54 1007.91 1007.88 1008.44 1009.33 1010.06 1010.46 1011.50 1013.41 1013.48 1013.68 1014.05 1014.87 1015.03 1015.50 1016.10 1016.50 1018.24 1018.46 1018.54 1018.59 1018.67 1018.84 1018.96 1019.11 1019.24 1019.18 1019.25 1019.33 1019.49 1019.58 1019.65 1019.69 1019.83 1019.95 1020.02 1020.21 1020.23 1020.20 1020.24 1020.34 1020.47 1020.56
1010.89 1011.10 1010.72 1010.53 1010.10 1009.85 1009.18 1008.51 1008.43 1008.72 1009.33 1010.30 1010.65 1011.81 1013.49 1014.03 1014.29 1014.70 1015.12 1015.28 1015.49 1015.69 1016.88 1017.95 1018.58 1018.81 1018.85 1018.94 1019.00 1019.09 1019.25 1019.47 1019.50 1019.51 1019.74 1019.87 1019.78 1019.99 1020.02 1020.13 1020.31 1020.39 1020.36 1020.50 1020.67 1020.66 1020.72 1020.80 1020.93
1011.00 1011.29 1010.99 1010.89 1010.75 1010.42 1010.15 1009.81 1009.08 1009.13 1009.81 1010.90 1011.47 1012.16 1013.79 1014.51 1014.44 1014.87 1015.19 1015.22 1015.37 1015.97 1016.34 1017.89 1018.75 1018.95 1019.05 1019.11 1019.21 1019.37 1019.46 1019.60 1019.73 1019.80 1019.95 1020.00 1020.20 1020.33 1020.40 1020.39 1020.53 1020.56 1020.69 1020.79 1020.98 1021.05 1021.06 1021.21 1021.26
1010.54 1011.01 1010.85 1011.38 1011.17 1010.98 1010.93 1011.00 1009.79 1009.70 1010.11 1010.47 1011.13 1011.94 1014.38 1014.40 1014.69 1014.95 1015.26 1015.57 1015.69 1016.35 1016.66 1017.45 1018.05 1018.98 1019.26 1019.37 1019.43 1019.56 1019.70 1019.78 1019.92 1020.07 1020.18 1020.34 1020.48 1020.56 1020.63 1020.72 1020.87 1020.95 1021.00 1021.05 1021.18 1021.26 1021.36 1021.43 1021.53
1010.14 1010.42 1010.84 1011.30 1011.63 1011.85 1011.91 1011.31 1010.62 1010.06 1010.71 1011.07 1011.07 1012.06 1013.78 1014.38 1014.78 1015.09 1015.48 1015.87 1016.13 1016.70 1017.11 1017.60 1017.89 1018.49 1018.40 1018.96 1019.75 1019.81 1019.94 1020.08 1020.24 1020.44 1020.51 1020.57 1020.68 1020.76 1020.85 1020.95 1021.18 1021.25 1021.29 1021.28 1021.39 1021.45 1021.52 1021.61 1021.69
1009.86 1009.85 1009.96 1010.80 1011.09 1011.94 1012.24 1011.39 1011.35 1011.28 1011.21 1010.99 1011.43 1011.76 1013.59 1014.47 1014.81 1015.20 1015.55 1015.98 1016.72 1016.90 1017.10 1017.75 1017.93 1018.27 1018.63 1018.82 1019.71 1019.97 1020.25 1020.37 1020.51 1020.66 1020.80 1020.77 1020.69 1020.64 1020.71 1021.21 1021.44 1021.53 1021.56 1021.52 1021.54 1021.58 1021.59 1021.55 1021.65
1009.06 1009.18 1009.96 1010.69 1011.52 1011.95 1012.46 1011.71 1011.42 1011.25 1011.34 1011.44 1011.74 1013.01 1014.11 1014.61 1014.96 1015.22 1015.58 1016.06 1016.52 1017.01 1017.17 1017.55 1017.38 1018.24 1018.45 1018.95 1019.75 1019.66 1019.85 1019.66 1020.46 1020.27 1020.67 1020.48 1020.72 1020.86 1020.75 1021.52 1021.74 1021.76 1021.79 1021.77 1021.75 1021.72 1021.48 1020.94 1020.27
1008.73 1008.89 1009.77 1010.78 1011.47 1012.36 1012.49 1012.11 1011.60 1011.23 1011.17 1011.50 1011.90 1013.00 1014.05 1014.55 1014.98 1015.19 1015.65 1016.10 1016.53 1017.05 1017.15 1017.51 1018.15 1018.61 1018.31 1019.60 1019.39 1019.71 1019.52 1019.82 1020.49 1020.85 1020.35 1020.71 1020.84 1021.10 1020.82 1021.31 1021.30 1021.44 1021.70 1020.86 1021.11 1020.80 1020.35 1020.71 1020.41
1008.25 1009.11 1010.05 1011.29 1012.23 1012.79 1013.17 1012.65 1012.33 1011.60 1010.96 1011.46 1012.46 1013.05 1013.81 1014.36 1014.64 1014.94 1015.54 1016.28 1016.94 1017.29 1017.54 1017.93 1018.54 1018.94 1019.00 1019.15 1019.00 1019.35 1019.68 1019.90 1020.01 1020.64 1020.86 1020.84 1020.70 1021.03 1021.02 1021.03 1021.45 1021.38 1021.33 1021.33 1021.11 1020.68 1021.05 1020.65 1020.88
1007.69 1009.05 1010.15 1011.58 1012.24 1013.34 1013.56 1013.16 1012.93 1011.94 1011.73 1011.84 1012.86 1013.52 1013.72 1014.08 1014.58 1014.99 1015.68 1016.43 1017.05 1017.40 1017.81 1018.27 1018.67 1019.08 1019.38 1019.45 1019.40 1019.44 1019.85 1019.69 1020.31 1020.56 1020.86 1020.78 1020.85 1021.23 1021.17 1021.43 1021.25 1021.38 1021.12 1020.87 1020.83 1020.76 1020.92 1020.74 1020.82
1007.72 1008.75 1010.24 1011.87 1013.36 1014.06 1014.08 1014.09 1013.29 1012.55 1012.27 1012.53 1013.14 1013.41 1013.69 1014.04 1014.60 1015.19 1015.75 1016.41 1017.01 1017.40 1017.80 1018.35 1018.65 1019.21 1019.40 1019.76 1019.93 1019.94 1019.72 1020.39 1020.17 1020.55 1021.09 1021.25 1021.06 1021.24 1021.33 1021.41 1021.33 1021.33 1021.17 1020.95 1020.95 1021.22 1020.88 1020.88 1020.73
1007.73 1008.51 1009.94 1012.07 1013.32 1014.41 1014.70 1014.73 1013.87 1013.07 1012.82 1012.88 1013.08 1013.36 1013.72 1014.16 1014.80 1015.27 1015.76 1016.35 1016.93 1017.36 1017.93 1018.40 1018.62 1019.11 1019.48 1019.79 1019.88 1019.64 1020.03 1020.11 1020.36 1020.65 1021.28 1021.52 1021.47 1021.77 1021.61 1021.50 1021.26 1021.35 1021.62 1021.47 1021.36 1021.24 1021.07 1020.62 1020.57
1006.99 1008.00 1008.74 1011.76 1013.36 1014.25 1014.63 1014.55 1014.32 1013.63 1013.10 1013.02 1013.15 1013.37 1013.75 1014.25 1014.82 1015.22 1015.79 1016.30 1016.86 1017.13 1018.03 1018.42 1018.28 1018.93 1019.41 1019.68 1019.80 1019.66 1019.95 1020.15 1020.46 1020.72 1021.18 1021.62 1021.90 1021.96 1021.81 1021.49 1021.49 1021.74 1021.61 1021.22 1021.22 1020.87 1020.80 1020.76 1020.73
1006.10 1005.93 1008.35 1011.21 1012.70 1013.18 1014.09 1014.25 1014.88 1014.75 1013.88 1013.11 1013.14 1013.24 1013.63 1014.16 1014.69 1015.18 1015.65 1016.19 1016.83 1017.42 1018.07 1018.29 1018.63 1018.89 1019.39 1019.92 1020.19 1020.25 1020.73 1020.48 1020.42 1020.68 1020.89 1021.69 1021.85 1021.98 1021.58 1021.37 1021.90 1022.05 1021.58 1021.28 1021.05 1021.09 1020.87 1020.91 1020.66
1004.53 1005.19 1006.97 1009.29 1011.55 1012.45 1012.84 1013.69 1014.82 1015.06 1014.36 1013.16 1012.93 1013.08 1013.32 1013.85 1014.29 1015.04 1015.43 1015.95 1016.66 1017.46 1018.19 1018.76 1018.61 1019.15 1019.50 1019.66 1020.27 1020.22 1020.33 1020.41 1020.58 1020.66 1020.87 1021.65 1021.69 1021.94 1021.70 1021.77 1021.98 1021.76 1021.36 1021.27 1021.37 1021.52 1021.29 1021.01 1020.91
1004.42 1004.77 1005.83 1008.37 1010.45 1011.79 1012.42 1013.52 1014.23 1014.83 1014.56 1012.98 1012.72 1012.70 1012.89 1013.28 1014.00 1014.73 1015.32 1015.86 1016.47 1017.26 1018.06 1018.68 1019.05 1019.55 1019.57 1019.76 1019.68 1019.87 1019.90 1020.39 1020.54 1020.70 1021.34 1021.66 1021.75 1021.93 1022.00 1021.57 1022.03 1021.78 1021.41 1021.81 1021.77 1021.40 1021.38 1020.88 1020.95
1004.81 1004.64 1005.70 1008.20 1009.80 1010.89 1011.93 1012.10 1012.86 1014.12 1013.69 1012.45 1012.38 1012.32 1012.48 1012.79 1013.54 1014.39 1015.11 1015.77 1016.16 1017.05 1017.83 1018.59 1019.08 1019.66 1019.83 1019.92 1019.65 1019.67 1019.86 1020.16 1020.32 1020.67 1021.26 1021.36 1021.66 1021.88 1021.98 1021.97 1021.83 1022.11 1021.75 1022.04 1022.00 1021.83 1020.94 1020.96 1021.25
1004.44 1004.14 1005.23 1006.41 1008.72 1009.17 1010.36 1011.55 1012.37 1013.74 1013.62 1012.21 1012.08 1012.03 1012.38 1012.55 1012.87 1013.97 1014.74 1015.27 1015.92 1016.65 1017.58 1018.37 1018.88 1019.49 1019.88 1019.77 1020.08 1020.18 1020.40 1020.53 1020.74 1020.91 1021.11 1021.32 1021.60 1021.71 1021.91 1022.17 1022.03 1022.24 1021.81 1021.64 1021.95 1021.89 1021.68 1020.90 1021.25
1004.20 1005.09 1005.34 1006.26 1006.77 1007.36 1008.49 1010.09 1011.06 1012.55 1012.69 1012.11 1011.52 1011.52 1011.51 1011.91 1012.45 1013.11 1014.12 1014.74 1015.48 1016.20 1017.15 1018.09 1018.86 1019.35 1019.80 1020.02 1019.82 1020.28 1020.55 1020.43 1020.16 1020.59 1020.67 1020.95 1021.49 1021.60 1021.80 1022.13 1022.33 1022.45 1021.72 1022.03 1022.03 1021.77 1021.86 1021.50 1020.93
1004.54 1005.32 1005.21 1005.58 1005.50 1006.40 1007.44 1008.51 1010.07 1011.35 1011.96 1012.13 1011.39 1011.10 1010.89 1011.19 1011.67 1012.39 1013.17 1013.96 1014.91 1015.86 1016.54 1017.61 1018.59 1019.21 1019.44 1019.94 1020.32 1020.32 1020.23 1020.16 1020.28 1020.47 1021.10 1021.24 1021.65 1021.65 1021.72 1022.05 1022.26 1022.37 1021.98 1022.25 1022.22 1022.33 1022.23 1021.72 1021.25
1005.75 1005.36 1005.33 1005.67 1005.00 1004.97 1005.15 1005.87 1008.19 1009.13 1009.12 1010.08 1011.08 1011.24 1010.68 1010.73 1011.22 1011.90 1012.65 1013.51 1014.71 1015.52 1016.25 1017.12 1018.21 1019.01 1019.49 1019.97 1020.36 1020.51 1020.34 1020.40 1020.71 1020.72 1021.24 1021.11 1021.36 1021.37 1021.74 1021.86 1022.19 1022.44 1022.09 1022.23 1022.17 1022.35 1022.49 1022.15 1022.04
1005.46 1004.89 1004.56 1004.50 1004.33 1003.45 1004.74 1005.43 1005.03 1006.67 1007.70 1008.42 1009.32 1010.37 1010.58 1010.66 1010.94 1011.62 1012.24 1013.69 1014.18 1015.10 1016.01 1016.78 1017.88 1018.72 1019.28 1019.73 1020.07 1020.49 1020.60 1020.66 1020.72 1020.74 1020.73 1021.05 1021.03 1021.23 1021.69 1021.98 1022.15 1021.97 1022.20 1022.25 1022.29 1022.52 1022.52 1022.43 1022.14
1005.10 1004.42 1003.60 1003.11 1002.53 1002.65 1004.69 1004.48 1005.06 1006.12 1006.67 1007.77 1008.98 1010.10 1010.34 1010.40 1010.79 1011.25 1012.14 1013.45 1014.42 1014.96 1015.98 1016.68 1017.57 1018.39 1018.99 1019.46 1019.81 1020.20 1020.74 1020.72 1020.75 1020.67 1020.46 1020.32 1020.81 1020.98 1021.37 1021.63 1021.81 1021.88 1021.98 1022.08 1022.35 1022.17 1022.09 1022.17 1022.39
1004.54 1004.08 1003.84 1003.21 1002.10 1002.19 1002.73 1004.15 1006.04 1006.47 1006.80 1007.24 1008.12 1009.63 1010.82 1010.39 1010.81 1011.35 1012.12 1012.93 1014.00 1015.09 1015.79 1016.53 1017.28 1018.04 1018.64 1019.09 1019.66 1020.00 1020.36 1020.75 1020.88 1020.72 1020.75 1020.47 1020.56 1020.31 1020.93 1021.29 1021.56 1021.72 1021.95 1022.04 1022.13 1022.01 1022.24 1022.34 1022.57
1003.82 1004.28 1003.78 1003.03 1001.73 1001.94 1002.07 1003.18 1003.55 1005.87 1006.08 1006.87 1007.67 1008.92 1010.51 1011.24 1011.28 1011.54 1012.15 1012.96 1013.89 1015.65 1016.01 1016.68 1016.96 1017.70 1018.36 1018.79 1019.53 1019.61 1019.97 1020.38 1020.70 1020.71 1020.65 1020.50 1020.36 1020.50 1020.78 1021.01 1021.22 1021.48 1021.72 1021.86 1022.13 1021.83 1022.12 1022.40 1022.40
1004.27 1003.59 1003.24 1002.44 1002.30 1001.32 1001.59 1002.49 1004.00 1005.76 1006.47 1006.78 1007.66 1008.90 1010.00 1010.99 1011.41 1011.84 1012.44 1013.40 1014.33 1015.41 1016.36 1016.70 1017.05 1017.47 1017.87 1018.42 1019.10 1019.46 1019.74 1019.88 1020.25 1020.23 1020.29 1020.31 1020.39 1020.49 1020.84 1021.04 1021.12 1021.30 1021.54 1021.66 1022.04 1022.10 1021.92 1022.35 1022.41
1003.20 1003.08 1003.10 1002.42 1002.26 1002.42 1002.29 1003.56 1005.35 1006.12 1007.14 1007.49 1008.16 1009.12 1009.87 1010.55 1011.29 1012.18 1013.17 1014.04 1015.06 1016.05 1016.76 1016.94 1017.33 1017.40 1017.61 1017.94 1018.61 1019.06 1019.65 1019.66 1019.77 1019.89 1019.91 1019.74 1020.03 1020.26 1020.42 1020.58 1020.94 1021.05 1021.23 1021.36 1021.77 1021.92 1021.72 1022.17 1022.29
Wind_Speed
9 8 4 6 5 3 6 7 10 15 16 6 11 5 12 14 8 9 18 13 17 15 14 13 9 11 12 11 12 12 12 12 12 12 12 14 14 13 15 16 15 15 16 17 16 15 15 15 16
6 3 3 2 4 5 7 9 13 11 13 19 8 10 6 11 9 17 14 18 16 15 14 14 9 10 11 11 10 10 11 11 11 11 11 12 14 13 16 16 15 14 14 15 16 16 15 15 15
5 2 4 2 2 3 8 9 13 14 18 13 7 9 7 6 16 9 18 18 15 12 13 13 11 10 10 10 10 10 10 10 11 11 10 13 13 15 16 15 15 14 14 13 13 11 13 14 13
4 3 4 1 4 5 5 8 16 20 16 3 14 11 8 2 11 12 17 16 15 14 14 13 11 11 10 10 9 9 9 10 9 11 11 14 14 13 15 14 13 13 12 11 11 11 10 12 13
1 1 1 3 5 7 10 9 15 17 13 10 3 10 12 6 12 19 16 14 15 14 14 14 10 11 11 10 8 8 8 9 9 11 11 12 13 13 14 13 14 13 13 14 14 13 14 13 12
1 2 1 3 3 6 10 7 13 11 13 12 15 18 10 9 19 16 14 14 12 12 13 14 11 11 11 11 10 8 8 10 10 11 11 11 14 13 13 13 13 14 16 15 13 12 12 11 11
3 1 1 1 7 6 7 3 6 10 13 10 15 15 11 15 16 16 14 12 11 11 11 10 12 11 10 10 10 9 8 10 10 11 11 11 12 12 12 13 13 13 13 13 11 10 10 11 10
2 2 5 5 6 3 3 3 2 9 8 10 13 9 15 17 16 15 14 12 11 10 10 8 8 10 10 12 9 10 10 10 11 12 12 12 11 12 12 11 12 11 11 10 10 10 8 9 10
3 5 3 2 12 6 4 6 4 1 13 4 4 13 24 19 17 16 15 12 10 8 9 12 10 8 7 9 11 11 11 12 12 13 11 7 8 9 7 14 10 9 8 8 8 9 8 8 10
5 2 3 5 7 11 8 5 10 9 10 11 17 24 23 21 18 17 15 14 12 11 9 8 8 9 7 9 8 7 8 7 7 8 9 7 7 7 11 10 9 8 6 7 4 3 5 10 4
3 4 3 1 8 13 8 7 5 10 11 15 23 27 23 21 17 16 14 13 12 11 8 9 7 7 8 6 7 6 5 6 7 7 6 8 7 5 5 6 6 6 5 3 3 3 3 6 4
6 3 11 7 14 10 6 5 9 3 5 15 21 25 22 20 17 16 14 13 12 10 9 9 8 6 7 7 5 6 6 5 6 8 7 6 6 5 4 5 5 3 3 2 3 5 4 3 6
5 3 11 12 17 12 8 9 3 6 11 20 23 22 22 18 16 15 13 12 11 11 10 9 9 7 8 4 6 7 7 6 9 7 6 5 7 6 6 4 5 3 2 4 3 5 6 5 6
4 7 17 16 12 5 6 3 4 9 18 23 22 20 19 17 16 14 13 12 11 10 11 10 10 8 8 7 7 5 6 7 6 7 8 6 7 5 6 5 5 4 2 4 4 5 4 4 5
9 8 13 18 11 6 8 2 7 12 19 22 20 18 17 16 14 13 13 13 11 10 10 11 10 10 8 8 8 6 7 7 6 7 7 8 6 5 3 4 3 4 4 1 4 3 3 5 5
12 9 8 14 13 9 9 11 6 13 19 20 19 17 16 15 14 12 12 12 11 10 10 11 10 11 9 8 6 6 5 6 6 7 7 7 6 4 3 4 3 3 1 3 4 3 4 4 4
11 8 11 12 18 14 14 12 6 5 13 19 18 18 15 14 13 12 13 12 13 11 11 11 11 11 10 8 7 6 6 3 5 6 6 6 5 5 3 4 5 3 2 3 2 4 2 4 4
13 9 15 14 12 17 15 10 15 10 15 19 18 18 16 15 14 13 13 12 13 12 10 10 10 11 9 7 6 5 6 5 5 5 5 6 5 5 3 5 3 4 3 3 5 5 4 3 3
7 7 10 12 12 14 9 11 16 17 14 19 18 18 17 16 14 14 12 12 13 12 11 11 10 10 9 7 7 5 6 5 5 5 4 6 5 5 2 4 5 4 2 5 2 2 3 4 3
9 10 13 12 17 8 11 9 16 17 18 22 21 18 17 17 17 14 13 13 13 13 12 12 11 10 7 5 3 4 4 5 5 4 5 6 6 5 5 1 4 2 5 3 4 5 1 4 5
7 8 13 14 14 9 12 6 10 15 19 21 20 19 19 16 16 16 14 14 13 13 13 11 11 11 8 6 6 6 5 4 6 6 6 6 6 6 4 3 2 3 5 5 1 4 5 4 4
11 1 5 13 15 6 16 3 8 18 19 16 20 20 19 19 17 17 17 16 14 13 13 12 11 10 10 8 8 8 5 4 3 5 5 6 7 6 6 5 4 4 3 3 3 3 3 7 4
6 5 7 12 4 10 11 3 7 20 17 16 17 21 21 21 19 17 18 18 15 14 13 12 12 10 10 9 5 5 5 5 4 5 6 5 5 6 6 6 5 4 7 3 1 2 3 2 5
2 9 6 4 4 8 11 10 13 17 26 26 21 18 20 20 20 17 16 14 14 14 13 13 13 11 10 9 8 6 5 4 2 5 4 4 5 6 7 6 7 7 4 4 3 1 2 4 3
13 14 8 9 8 3 4 8 5 19 14 23 26 25 22 20 20 18 15 13 15 15 14 13 12 12 11 9 9 8 7 4 6 6 6 6 5 5 7 7 6 7 6 4 2 3 2 3 1
18 18 8 10 10 9 6 7 4 6 12 14 20 18 21 20 18 18 16 16 10 15 15 13 13 12 11 9 9 7 5 3 5 9 0 8 8 7 8 8 7 6 7 6 4 5 6 4 4
16 19 16 16 6 11 11 6 6 7 11 14 20 24 18 18 18 16 17 16 14 17 15 15 12 11 11 11 8 8 7 6 6 3 5 6 4 6 8 8 8 7 7 6 6 6 6 3 5
15 14 14 10 10 12 9 10 7 10 11 16 19 23 19 14 16 17 15 14 13 9 13 12 13 11 10 11 8 8 7 7 6 6 6 4 4 6 6 9 9 8 7 6 5 6 7 6 6
12 13 14 14 14 8 10 8 8 9 8 16 19 20 22 26 20 14 14 14 13 13 7 12 10 12 11 10 10 9 8 7 6 6 5 5 7 8 8 8 7 8 8 7 7 5 4 7 7
21 17 17 12 12 12 10 7 6 4 9 9 13 13 17 17 18 17 13 14 14 14 12 9 6 8 8 9 11 10 9 8 8 7 6 5 6 7 5 7 7 8 9 8 8 8 6 8 8
Wind_Direction
223 214 268 240 252 230 120 87 106 117 127 115 112 120 74 16 2 65 133 128 137 133 129 127 110 99 92 90 88 86 83 85 84 88 97 100 94 96 96 97 96 95 93 93 97 91 84 80 79
180 197 246 240 261 153 106 110 126 125 118 131 107 128 122 76 74 122 125 136 141 137 134 125 111 105 96 91 91 91 80 80 78 76 81 101 100 97 96 99 97 98 95 93 87 83 82 78 77
187 244 285 339 304 98 112 109 125 117 131 126 105 55 27 76 128 118 128 138 140 134 114 108 119 117 112 106 96 89 86 80 78 74 77 100 103 106 101 98 100 96 93 88 89 87 78 78 79
201 207 200 294 142 86 104 137 135 132 131 56 124 95 86 136 116 128 140 140 132 134 120 129 127 127 115 110 107 101 96 87 81 81 83 93 101 104 107 103 96 91 85 85 92 90 81 85 77
303 292 130 39 84 121 73 108 139 144 133 126 140 104 108 112 122 132 140 147 143 131 124 127 124 126 113 106 101 106 104 92 96 88 82 90 102 108 103 101 96 87 85 89 85 88 82 81 80
22 262 65 155 156 126 97 41 147 139 126 114 112 119 92 144 139 140 147 141 136 128 123 126 122 110 118 111 107 105 104 98 91 87 87 89 97 107 108 101 92 83 83 83 87 88 86 81 86
270 349 136 154 154 159 104 18 186 136 152 123 138 113 114 160 141 142 150 137 136 129 104 131 130 120 109 106 106 106 105 101 99 93 97 96 102 109 108 103 97 89 87 82 81 88 93 87 88
216 272 197 215 192 133 93 100 248 166 86 117 134 143 148 146 150 145 144 150 137 130 128 106 131 111 137 125 102 107 109 107 100 96 100 102 102 106 116 121 95 92 88 85 77 78 101 91 89
231 231 255 162 167 138 142 128 118 173 151 153 117 145 136 152 146 146 148 143 136 148 142 134 134 124 109 125 111 122 111 108 111 117 102 99 95 113 127 77 103 96 89 80 73 75 95 130 116
242 284 9 342 143 142 142 103 129 142 133 133 118 118 142 146 154 151 154 150 155 140 159 135 138 131 136 104 103 105 129 116 114 96 104 113 115 78 92 97 105 96 93 95 90 104 179 215 92
146 7 87 312 158 134 129 121 148 161 153 154 145 143 149 152 160 156 155 153 144 153 141 145 114 127 112 138 144 130 147 131 117 127 111 106 120 133 139 130 142 132 206 118 170 178 63 63 41
161 71 39 108 133 119 160 127 88 265 85 151 152 147 151 158 164 157 155 154 147 154 146 131 137 134 125 137 124 117 115 125 133 110 127 131 129 108 114 98 109 120 65 30 28 61 41 79 98
240 142 74 149 145 145 166 88 65 108 134 140 146 152 153 160 162 155 150 151 155 162 152 147 143 139 126 119 117 103 135 130 116 141 114 109 113 121 116 111 98 75 120 100 57 62 49 84 94
146 145 118 147 133 120 123 86 343 121 139 140 153 157 157 158 162 157 156 155 163 165 155 148 152 139 137 132 132 129 110 114 122 128 115 117 115 111 127 131 119 100 59 46 44 36 51 59 97
143 153 129 148 148 121 134 151 84 144 149 151 159 159 157 159 163 169 161 158 167 175 154 151 152 143 149 139 153 124 144 131 132 116 136 114 123 103 117 104 134 102 96 144 103 119 142 105 115
184 173 180 150 152 162 208 164 120 165 160 160 161 158 156 160 165 171 161 159 162 164 157 163 154 149 153 132 151 127 110 129 126 134 137 130 123 117 170 162 115 89 134 75 66 75 104 92 97
197 183 149 138 186 157 200 136 174 160 187 167 169 164 164 166 167 170 161 160 159 156 164 163 149 153 152 151 134 127 126 145 134 142 136 123 137 129 161 131 119 216 148 56 54 91 2 113 104
187 214 163 149 161 168 195 141 164 193 221 171 175 166 169 171 175 169 169 158 161 159 167 170 165 147 154 154 145 157 142 143 149 146 132 151 129 129 173 121 138 240 178 129 58 7 55 34 28
301 234 150 136 152 150 129 137 173 179 208 187 181 169 175 176 171 166 175 171 163 166 172 178 168 161 176 171 168 155 163 149 162 162 148 149 150 142 148 140 159 243 112 38 38 135 70 69 47
224 217 113 123 150 158 175 174 168 170 192 198 185 180 188 181 169 169 179 181 181 172 176 185 178 177 183 171 200 176 160 163 153 151 152 180 170 169 159 159 149 288 127 87 52 11 66 84 44
219 208 157 151 166 182 176 136 162 173 201 200 190 193 196 187 174 179 188 185 190 179 180 188 191 180 193 192 160 158 144 156 184 172 178 177 184 181 189 164 303 184 276 137 96 62 355 88 80
173 247 148 147 180 177 204 118 186 171 183 194 190 193 193 187 186 181 190 192 191 187 183 178 185 189 190 193 181 158 180 183 213 187 181 173 196 191 188 164 178 230 300 107 143 92 14 310 72
71 173 174 178 225 148 183 152 157 166 186 190 207 196 195 192 183 189 189 188 189 186 184 176 179 185 185 186 192 198 203 179 175 192 145 183 183 195 195 178 190 202 233 131 93 177 14 89 351
189 171 169 173 259 230 168 259 160 182 197 195 188 203 202 199 187 191 199 171 192 183 185 176 176 182 185 188 189 205 188 176 179 165 173 195 174 180 196 190 189 188 206 189 195 187 210 11 37
210 180 175 198 201 256 128 212 65 193 177 192 188 192 203 197 191 191 188 178 192 185 185 176 179 186 187 195 194 204 215 202 216 200 183 192 181 196 163 193 200 183 195 185 198 201 193 219 290
211 212 216 206 209 208 128 221 135 183 192 188 198 181 203 193 193 193 184 196 168 190 183 183 178 187 189 196 204 200 211 209 213 220 284 210 172 192 180 182 192 191 193 195 190 208 234 184 221
190 226 239 276 255 259 158 174 149 185 205 200 179 168 206 205 194 193 200 190 184 189 182 181 177 187 196 197 200 200 204 201 215 247 200 200 187 171 189 191 195 197 200 211 194 230 212 222 223
238 196 210 241 217 231 158 224 104 182 175 177 173 179 175 202 209 195 197 190 170 196 173 196 173 181 190 208 206 207 205 207 205 205 217 203 199 227 169 194 197 201 202 209 214 202 202 212 229
194 225 222 248 240 259 229 189 68 135 183 172 174 178 179 195 198 192 190 172 181 161 156 173 168 176 192 204 200 218 209 206 201 223 204 180 176 183 190 199 199 201 200 207 205 242 202 214 225
203 215 203 230 188 259 312 81 105 139 150 183 158 177 183 184 190 175 164 169 168 174 163 140 171 173 189 193 202 206 215 213 210 220 204 186 169 195 206 194 202 208 207 200 207 221 222 219 234